This demonstration page uses our WeatherBlox Daily Observations layout. Learn more.

Hourly Observations for June 3, 2019

Temp ( °F °C ) Dew Point ( °F °C ) Humidity (%) Winds ( mph kmh ) Pressure ( in mb ) Visibility ( mi km ) Precip ( " mm )
12:15 am 00:15 Partly Cloudy 66 19 57 14 73 73 N 14 22 29.85 1011 10 16.09344 0 0
12:30 am 00:30 Clear 64 18 55 13 73 73 N 8 13 29.88 1012 10 16.09344 0 0
12:55 am 00:55 Clear 63 17 54 12 73 73 N 7 11 29.88 1012 10 16.09344 0 0
1:15 am 01:15 Clear 63 17 54 12 73 73 N 6 9 29.88 1012 10 16.09344 0 0
1:35 am 01:35 Clear 63 17 54 12 73 73 NNE 3 6 29.88 1012 10 16.09344 0 0
1:55 am 01:55 Clear 61 16 54 12 77 77 Calm 29.88 1012 10 16.09344 0 0
2:15 am 02:15 Clear 59 15 54 12 82 82 N 3 6 29.88 1012 10 16.09344 0 0
2:35 am 02:35 Clear 57 14 55 13 94 94 NNW 3 6 29.88 1012 10 16.09344 0 0
2:55 am 02:55 Clear 59 15 50 10 72 72 N 5 7 29.88 1012 10 16.09344 0 0
3:15 am 03:15 Clear 59 15 50 10 72 72 NNW 7 11 29.88 1012 10 16.09344 0 0
3:35 am 03:35 Clear 57 14 52 11 82 82 NW 5 7 29.88 1012 10 16.09344 0 0
3:55 am 03:55 Clear 55 13 54 12 94 94 NW 3 6 29.88 1012 10 16.09344 0 0
4:15 am 04:15 Clear 54 12 54 12 100 100 Calm 29.91 1013 10 16.09344 0 0
4:35 am 04:35 Clear 52 11 52 11 100 100 WNW 3 6 29.91 1013 10 16.09344 0 0
4:55 am 04:55 Clear 52 11 52 11 100 100 NW 3 6 29.91 1013 10 16.09344 0 0
5:15 am 05:15 Clear 52 11 52 11 100 100 Calm 29.91 1013 10 16.09344 0 0
5:35 am 05:35 Clear 54 12 52 11 94 94 NW 3 6 29.91 1013 10 16.09344 0 0
5:55 am 05:55 Sunny 52 11 52 11 100 100 W 3 6 29.94 1014 10 16.09344 0 0
6:15 am 06:15 Sunny 50 10 50 10 100 100 W 5 7 29.94 1014 10 16.09344 0 0
6:35 am 06:35 Sunny 52 11 52 11 100 100 W 5 7 29.94 1014 10 16.09344 0 0
6:55 am 06:55 Sunny 54 12 54 12 100 100 W 5 7 29.94 1014 10 16.09344 0 0
7:15 am 07:15 Sunny 55 13 54 12 94 94 WNW 3 6 29.97 1015 10 16.09344 0 0
7:35 am 07:35 Sunny 59 15 54 12 82 82 NW 3 6 29.97 1015 10 16.09344 0 0
7:55 am 07:55 Sunny 61 16 54 12 77 77 Calm 29.97 1015 10 16.09344 0 0
8:15 am 08:15 Sunny 63 17 54 12 73 73 Calm 29.97 1015 10 16.09344 0 0
8:35 am 08:35 Sunny 64 18 52 11 64 64 WNW 8 13 30 1016 10 16.09344 0 0
8:55 am 08:55 Sunny 64 18 54 12 68 68 W 5 7 30 1016 10 16.09344 0 0
9:15 am 09:15 Sunny 66 19 54 12 64 64 NW 10 17 30 1016 10 16.09344 0 0
9:35 am 09:35 Sunny 66 19 52 11 60 60 WNW 12 19 30 1016 10 16.09344 0 0
9:55 am 09:55 Sunny 66 19 52 11 60 60 NW 15 24 30 1016 10 16.09344 0 0
10:15 am 10:15 Partly Cloudy 68 20 54 12 60 60 NW 10 17 30 1016 10 16.09344 0 0
10:35 am 10:35 Sunny 68 20 50 10 53 53 NW 13 20 30 1016 10 16.09344 0 0
10:55 am 10:55 Sunny 68 20 48 9 49 49 NNW 15 24 30 1016 10 16.09344 0 0
11:15 am 11:15 Sunny 70 21 48 9 46 46 NW 14 22 30 1016 10 16.09344 0 0
11:35 am 11:35 Sunny 70 21 45 7 40 40 NW 18 30 30 1016 10 16.09344 0 0
11:55 am 11:55 Sunny 70 21 43 6 38 38 NW 20 31 30 1016 10 16.09344 0 0
12:15 pm 12:15 Sunny 70 21 45 7 40 40 NW 15 24 30.03 1017 10 16.09344 0 0
12:35 pm 12:35 Sunny 70 21 45 7 40 40 NW 17 28 30.03 1017 10 16.09344 0 0
1:15 pm 13:15 Sunny 70 21 45 7 40 40 NNW 16 26 30.03 1017 10 16.09344 0 0
1:35 pm 13:35 Sunny 72 22 45 7 38 38 WNW 12 19 30.03 1017 10 16.09344 0 0
1:55 pm 13:55 Sunny 70 21 43 6 38 38 NNW 7 11 30.03 1017 10 16.09344 0 0
2:15 pm 14:15 Sunny 72 22 41 5 33 33 N 10 17 30.03 1017 10 16.09344 0 0
2:35 pm 14:35 Sunny 72 22 41 5 33 33 N 9 15 30.03 1017 10 16.09344 0 0
2:55 pm 14:55 Sunny 72 22 41 5 33 33 N 13 20 30.03 1017 10 16.09344 0 0
3:15 pm 15:15 Sunny 72 22 41 5 33 33 NNW 12 19 30.03 1017 10 16.09344 0 0
3:35 pm 15:35 Sunny 72 22 41 5 33 33 NNW 14 22 30.03 1017 10 16.09344 0 0
3:55 pm 15:55 Sunny 72 22 39 4 31 31 N 12 19 30.03 1017 10 16.09344 0 0
4:15 pm 16:15 Sunny 72 22 41 5 33 33 N 12 19 30.03 1017 10 16.09344 0 0
4:35 pm 16:35 Sunny 72 22 41 5 33 33 NNW 10 17 30.03 1017 10 16.09344 0 0
4:55 pm 16:55 Sunny 72 22 43 6 36 36 W 8 13 30.03 1017 10 16.09344 0 0
5:15 pm 17:15 Sunny 72 22 39 4 31 31 WNW 13 20 30.03 1017 10 16.09344 0 0
5:35 pm 17:35 Sunny 72 22 41 5 33 33 NNW 9 15 30.03 1017 10 16.09344 0 0
5:55 pm 17:55 Sunny 72 22 41 5 33 33 NW 10 17 30.03 1017 10 16.09344 0 0
6:15 pm 18:15 Sunny 72 22 37 3 29 29 NNW 12 19 30.03 1017 10 16.09344 0 0
6:35 pm 18:35 Sunny 72 22 41 5 33 33 NW 13 20 30.06 1018 10 16.09344 0 0
6:55 pm 18:55 Sunny 70 21 39 4 33 33 NW 9 15 30.06 1018 10 16.09344 0 0
7:15 pm 19:15 Sunny 70 21 37 3 31 31 NNW 9 15 30.06 1018 10 16.09344 0 0
7:35 pm 19:35 Sunny 70 21 37 3 31 31 N 9 15 30.06 1018 10 16.09344 0 0
7:55 pm 19:55 Sunny 68 20 37 3 33 33 N 6 9 30.06 1018 10 16.09344 0 0
8:15 pm 20:15 Sunny 68 20 37 3 33 33 NNW 7 11 30.09 1019 10 16.09344 0 0
8:35 pm 20:35 Clear 64 18 39 4 40 40 NNW 6 9 30.09 1019 10 16.09344 0 0
8:55 pm 20:55 Clear 64 18 41 5 43 43 NW 3 6 30.09 1019 10 16.09344 0 0
9:15 pm 21:15 Clear 61 16 45 7 55 55 Calm 30.09 1019 10 16.09344 0 0
9:35 pm 21:35 Clear 59 15 46 8 63 63 NNW 3 6 30.09 1019 10 16.09344 0 0
9:55 pm 21:55 Clear 61 16 43 6 52 52 Calm 30.12 1020 10 16.09344 0 0
10:15 pm 22:15 Clear 57 14 45 7 63 63 NW 5 7 30.12 1020 10 16.09344 0 0
10:35 pm 22:35 Clear 57 14 46 8 67 67 NW 6 9 30.12 1020 10 16.09344 0 0
10:55 pm 22:55 Clear 55 13 46 8 72 72 NW 3 6 30.12 1020 10 16.09344 0 0
11:15 pm 23:15 Clear 55 13 46 8 72 72 WNW 3 6 30.12 1020 10 16.09344 0 0
11:35 pm 23:35 Clear 55 13 45 7 67 67 Calm 30.12 1020 10 16.09344 0 0
11:55 pm 23:55 Clear 55 13 45 7 67 67 Calm 30.12 1020 10 16.09344 0 0

Powered by AerisWeather